Location: Cointrin
(46.2167°N, 6.1167°E)
Time: 15:41:07
(UTC+00:00)

CSL-04 Debris - Visible Passes

Search period start: 30 September 2023 00:00
Search period end: 10 October 2023 00:00
Orbit: 823 x 846 km, 98.8° (Epoch: 30 September)

Date Brightness Start Highest point End Pass type
(mag) Time Alt. Az. Time Alt. Az. Time Alt. Az.
30 Sep 4.2 18:56:08 23° SE 18:59:30 57° ENE 19:04:49 10° N visible
30 Sep 6.2 20:37:49 17° SW 20:40:13 22° W 20:44:23 10° NW visible
01 Oct 4.6 18:39:40 19° SE 18:43:08 42° ENE 18:48:13 10° N visible
01 Oct 5.8 20:21:20 22° SW 20:23:36 30° W 20:28:20 10° NW visible
02 Oct 4.9 18:23:11 16° ESE 18:26:47 32° ENE 18:31:32 10° N visible
02 Oct 5.3 20:04:52 28° SW 20:07:02 41° W 20:12:09 10° NNW visible
03 Oct 5.3 18:06:42 12° ESE 18:10:29 24° ENE 18:14:45 10° N visible
03 Oct 4.7 19:48:23 35° SSW 19:50:30 56° W 19:55:50 10° NNW visible
04 Oct 5.6 17:50:37 10° E 17:54:13 19° ENE 17:57:51 10° NNE visible
04 Oct 4.2 19:31:54 39° S 19:34:00 77° WSW 19:39:26 10° NNW visible
04 Oct 6.9 21:14:03 10° W 21:15:15 11° W 21:16:27 10° WNW visible
05 Oct 5.9 17:35:19 10° E 17:38:01 14° NE 17:40:42 10° NNE visible
05 Oct 4.0 19:15:25 39° SSE 19:17:32 80° ENE 19:22:58 10° NNW visible
05 Oct 6.6 20:57:05 14° WSW 20:58:32 15° W 21:01:40 10° NW visible
06 Oct 4.2 18:58:55 34° SE 19:01:07 59° ENE 19:06:26 10° N visible
06 Oct 6.2 20:40:36 20° WSW 20:41:51 21° W 20:45:56 10° NW visible
07 Oct 4.5 18:42:26 28° ESE 18:44:43 43° ENE 18:49:49 10° N visible
07 Oct 5.8 20:24:07 27° WSW 20:25:14 29° W 20:29:54 10° NW visible
08 Oct 4.9 18:25:57 23° ESE 18:28:22 33° ENE 18:33:09 10° N visible
08 Oct 5.3 20:07:37 36° WSW 20:08:39 39° W 20:13:43 10° NNW visible
09 Oct 5.2 18:09:27 17° E 18:12:04 25° ENE 18:16:21 10° N visible
09 Oct 4.7 19:51:08 48° SW 19:52:06 54° W 19:57:24 10° NNW visible
